Torna al catalogo

COSMOS 970 DEB

AttivoLEO
NORAD 10889·DEBRIS·🇷🇺 Russia

Lanciato Dec 21, 1977 da Baikonur Cosmodrome

Loading…

Prossimi Passaggi (prossime 24 ore)

TLE

AggiornatoSource: Space-Track

Epoca: Sep 14, 2026, 07:27 UTC

1 10889U 77121AL  26257.31073399  .00000237  00000-0  30636-3 0  9994
2 10889  65.8241 235.6601 0120019  87.4987 273.9810 13.76750695437208

Traccia COSMOS 970 DEB in tempo reale con AllMySat

Download on the App Store